NOAA NWS Hourly Roundups by Site

Regional Weather Roundup for Omaha, NE

To Select Another Site Choose from List

Select Site:  

000
ASUS43 KOAX 192110
RWRNE

WEATHER ROUNDUP FOR NEBRASKA
NATIONAL WEATHER SERVICE OMAHA NE
400 PM CDT TUE OCT 19 2021

NOTES: SATELLITE DATA IS BEING USED TO AUGMENT CLOUD COVER ABOVE
       12000 FEET.
       "FAIR" INDICATES FEW OR NO CLOUDS BELOW 12,000 FEET WITH NO
       SIGNIFICANT WEATHER AND/OR OBSTRUCTIONS TO VISIBILITY.


NEZ001>004-019>022-054>056-192200-
NEBRASKA PANHANDLE

CITY           SKY/WX    TMP DP  RH WIND       PRES   REMARKS
SCOTTSBLUFF    CLOUDY    44  38  79 N14       29.96R
ALLIANCE       CLOUDY    42  41  96 N18G26    29.93R FOG
CHADRON        LGT RAIN  41  38  89 NE20G37   29.96R FOG
GORDON         LGT RAIN  42  40  95 N25G32    29.90R
KIMBALL        RAIN      42  39  88 W29G39    29.97R
SIDNEY         CLOUDY    48  39  71 N17G28    29.90R
$$

NEZ057>060-069>072-079>082-192200-
SOUTHWEST NEBRASKA

CITY           SKY/WX    TMP DP  RH WIND       PRES   REMARKS
NORTH PLATTE   SUNNY     73  48  41 SE7       29.72S
IMPERIAL       SUNNY     71  43  36 NW9G18    29.74R
LEXINGTON      SUNNY     75  49  39 SE20      29.71S
MCCOOK         SUNNY     80  37  21 S15G22    29.67F
OGALLALA       MOSUNNY   68  44  41 E13G20    29.76R
$$

NEZ005>010-023>029-035>040-094-192200-
NORTH CENTRAL NEBRASKA

CITY           SKY/WX    TMP DP  RH WIND       PRES   REMARKS
VALENTINE      PTSUNNY   62  44  51 NE17G31   29.83R
AINSWORTH      SUNNY     63  46  54 N16       29.80S
BROKEN BOW     SUNNY     73  47  39 SE13G22   29.73F
O`NEILL        SUNNY     71  47  42 E9        29.78S
ORD            SUNNY     72  49  44 SE13G24   29.73S
THEDFORD       PTSUNNY   65  46  50 NE13G18   29.79R
$$

NEZ041-046>049-061>064-073>077-083>087-192200-
SOUTH CENTRAL NEBRASKA

CITY           SKY/WX    TMP DP  RH WIND       PRES   REMARKS
GRAND ISLAND   SUNNY     76  48  37 S14G26    29.75F
AURORA         SUNNY     77  50  39 SE20      29.75F
HASTINGS       SUNNY     75  49  39 SE17G29   29.74F
HEBRON         SUNNY     79  53  40 S18G28    29.76F
HOLDREGE       SUNNY     75  48  38 S13G23    29.73R
KEARNEY        SUNNY     75  50  41 SE17      29.73S
YORK           SUNNY     75  50  41 SE21      29.76F
$$

NEZ011>018-030>034-042>045-192200-
NORTHEAST NEBRASKA

CITY           SKY/WX    TMP DP  RH WIND       PRES   REMARKS
NORFOLK        SUNNY     76  48  37 SE15G28   29.76F
ALBION         SUNNY     73  49  41 S17       29.76F
BLAIR          SUNNY     76  51  41 S14G20    29.81S
COLUMBUS       SUNNY     76  51  41 SE16G22   29.77F
FREMONT        SUNNY     77  52  41 SE12G20   29.80S
TEKAMAH        SUNNY     77  51  40 SE20      29.80F
WAYNE          SUNNY    N/A N/A N/A S16       29.78F
$$

NEZ050>053-065>068-078-088>093-192200-
SOUTHEAST NEBRASKA

CITY           SKY/WX    TMP DP  RH WIND       PRES   REMARKS
LINCOLN        SUNNY     79  51  37 S17G32    29.79F
OMAHA EPPLEY   MOSUNNY   78  52  40 S18G32    29.81F
BEATRICE       SUNNY     79  53  41 SE15G24   29.79F
FALLS CITY     SUNNY     77  53  43 S17G26    29.84F
NEBRASKA CITY  SUNNY     76  52  42 S17G28    29.83F
PLATTSMOUTH    SUNNY     77  52  40 SE16G23   29.82F
$$

NEZ044-045-051>053-067-192200-
OMAHA AREA

CITY           SKY/WX    TMP DP  RH WIND       PRES   REMARKS
OMAHA EPPLEY   MOSUNNY   78  52  40 S18G32    29.81F
BLAIR          SUNNY     76  51  41 S14G20    29.81S
FREMONT        SUNNY     77  52  41 SE12G20   29.80S
MILLARD        SUNNY     78  51  38 SE17G24   29.81S
OFFUTT AFB     SUNNY     77  50  37 S18G24    29.83F
PLATTSMOUTH    SUNNY     77  52  40 SE16G23   29.82F
WAHOO          SUNNY     78  50  37 SE18G28   29.79F
$$


 

View Past Reports for Omaha, NE.

Products Courtesy of NOAA-NWS
NWS Information Parsing Script by Ken True at Saratoga Weather - Script by SE Lincoln Weather.